Temperature
12 11 11 11 12 12 12 12 13 13 13 14 14 14 14 14 14 14 14 14 14 14 14 14 14 14 14 14 14 14 14 15 14 14 14 14 13 14 13 13 13 13 13
11 11 11 11 11 11 11 11 11 12 12 12 13 13 13 13 14 14 14 14 14 14 14 14 14 14 14 14 14 14 14 14 14 13 13 13 13 13 13 13 12 12 13
11 11 10 10 10 10 10 10 10 10 11 11 12 12 13 13 13 13 13 13 14 13 13 14 14 14 14 14 14 14 14 14 14 14 13 13 13 12 12 12 12 12 12
11 11 10 10 10 10 10 10 10 10 10 10 11 11 12 12 12 13 13 13 13 13 13 13 13 13 13 14 14 14 14 13 13 13 13 12 12 12 12 12 11 11 11
11 11 10 10 10 10 10 10 10 10 10 10 10 10 11 11 12 12 12 13 13 13 13 13 13 13 13 13 13 13 13 13 13 13 12 12 12 11 11 11 11 11 11
11 11 10 10 10 10 10 10 10 10 9 9 9 10 10 10 11 11 12 12 12 12 12 13 13 13 13 13 13 13 13 13 13 12 12 12 11 11 11 11 11 11 11
11 10 10 10 10 10 10 9 9 9 9 9 9 9 9 10 10 11 11 12 12 12 12 12 12 12 12 12 12 12 12 12 13 13 12 12 12 11 11 12 12 12 11
10 10 10 10 10 10 9 9 9 9 9 9 9 9 9 9 10 10 11 11 11 11 12 12 12 12 12 12 12 12 12 12 12 12 12 11 12 11 12 12 12 12 12
10 10 10 9 9 9 9 9 8 8 8 8 8 9 9 9 9 10 10 10 11 11 11 11 11 11 11 11 11 11 11 11 11 11 11 11 11 11 11 12 12 12 11
10 9 9 9 9 9 8 8 8 8 8 8 8 8 9 9 9 9 10 10 10 10 10 11 11 11 11 11 11 11 11 11 11 11 11 11 11 11 11 12 12 12 12
9 9 9 8 8 8 8 8 8 8 8 8 8 8 8 9 9 9 9 10 10 10 10 10 10 10 11 10 11 11 11 11 11 11 11 11 11 11 11 12 12 12 12
8 8 8 8 8 8 8 8 8 8 8 8 8 8 8 9 9 9 9 9 9 10 10 10 10 10 10 10 10 11 11 11 10 10 10 10 10 11 11 11 12 12 12
7 7 7 7 7 7 7 7 7 7 7 8 8 8 8 8 9 9 9 9 9 9 10 10 10 10 10 10 10 10 10 10 10 10 10 10 10 10 11 11 11 11 11
6 6 6 6 6 6 7 7 7 7 7 8 8 8 8 8 8 8 8 8 8 9 9 9 10 10 10 10 10 10 10 11 11 11 10 10 10 10 10 10 10 11 10
5 5 5 5 6 6 6 6 7 7 7 7 8 8 8 8 8 8 8 8 8 8 9 9 9 9 9 10 10 10 11 11 11 11 10 10 10 10 10 10 10 10 10
4 4 5 5 5 5 6 6 7 7 7 7 7 8 8 8 8 7 7 8 8 8 9 9 9 9 9 10 10 10 11 11 11 11 10 10 10 10 10 10 10 10 10
4 4 5 5 5 5 5 6 6 7 7 7 7 7 7 7 7 7 7 7 8 8 8 9 9 10 10 10 10 10 11 11 11 11 11 11 11 10 10 11 11 11 11
4 5 5 5 5 5 5 6 6 6 7 7 7 7 7 7 7 7 7 7 8 8 9 9 10 10 10 11 11 11 11 11 11 11 11 11 11 11 11 11 11 11 11
5 5 5 5 5 5 6 6 6 6 6 7 7 7 7 7 7 7 7 7 8 9 10 10 11 11 11 11 11 11 11 11 11 11 11 11 11 11 11 11 11 11 11
5 5 5 5 5 5 6 6 6 6 6 7 7 7 7 7 7 7 7 8 9 9 10 11 11 11 12 12 12 11 11 11 11 11 11 11 11 11 11 11 11 11 11
5 5 5 5 6 6 6 6 6 6 7 7 7 7 7 7 7 7 8 8 9 10 11 11 12 12 12 12 12 11 11 11 11 11 11 11 11 11 11 11 11 11 11
5 6 6 6 6 6 6 6 6 6 7 7 7 7 7 7 7 8 8 9 10 11 11 12 12 12 12 12 12 12 11 11 11 11 11 11 11 11 11 11 11 11 11
6 6 6 6 6 6 6 7 6 7 7 7 7 7 7 7 8 8 9 10 10 11 11 12 12 12 12 12 12 12 12 11 11 11 11 11 11 11 11 11 11 11 11
7 7 7 7 7 7 7 7 7 7 7 7 7 7 7 8 8 9 10 10 11 11 12 12 12 12 12 12 12 12 12 12 12 11 11 11 11 11 11 11 11 11 11
7 7 7 7 7 7 7 7 7 7 7 7 7 7 8 8 9 9 10 11 11 11 12 12 12 12 12 12 12 12 12 12 12 12 11 11 11 11 11 11 11 11 11
7 7 7 7 7 7 7 7 7 7 7 7 8 8 9 9 9 10 10 11 11 12 12 12 13 13 12 12 12 12 12 12 12 12 11 11 11 11 11 11 11 11 11
Wind_Speed
7 6 7 7 8 9 8 9 9 9 10 10 11 11 10 10 9 9 9 9 9 8 8 8 8 8 6 6 6 6 6 5 4 3 3 4 5 7 8 9 10 10 12
7 7 7 8 8 9 10 10 10 10 10 11 11 12 12 11 10 9 10 9 8 9 8 8 8 7 6 5 4 5 4 4 6 8 4 4 5 7 8 8 7 10 11
9 8 9 9 9 10 10 10 10 10 11 11 11 12 12 12 11 10 9 8 8 8 8 8 7 6 5 4 4 4 4 5 6 9 6 4 4 6 7 8 9 7 10
9 9 10 10 11 11 11 11 12 12 11 11 11 11 12 13 13 11 10 8 7 7 6 5 5 4 4 3 3 4 5 7 8 9 8 6 5 5 7 7 7 6 7
9 10 10 10 10 10 11 11 12 12 13 11 11 10 10 11 12 9 8 8 6 5 4 3 3 1 1 2 3 5 7 8 9 9 9 7 6 6 6 5 7 6 7
10 11 10 10 10 10 11 11 12 12 11 11 11 11 11 12 10 7 7 7 5 5 3 2 1 2 4 7 8 8 9 10 10 9 8 8 7 6 5 6 7 6 5
10 11 11 11 11 10 12 12 11 11 11 10 10 10 11 10 10 9 8 6 6 4 4 3 3 4 6 8 11 11 10 10 9 8 10 9 8 6 6 6 5 5 5
11 11 11 11 12 11 10 11 10 9 9 10 10 11 10 11 9 9 9 7 6 5 4 4 5 6 6 9 10 10 9 8 8 8 8 8 8 6 6 6 6 6 5
13 12 11 12 12 11 11 10 9 9 10 11 11 10 10 9 8 9 9 7 6 6 5 6 7 8 10 12 12 12 12 10 13 15 14 12 12 10 6 5 5 6 6
13 12 12 11 12 12 11 10 10 9 10 11 11 10 9 8 7 9 11 7 6 6 6 6 9 11 12 12 11 12 13 11 11 11 10 10 8 7 6 3 3 5 6
13 12 12 11 11 12 11 10 10 10 11 11 11 10 8 8 7 9 11 7 6 8 8 7 8 14 13 12 11 10 13 12 10 9 8 7 6 5 6 6 5 4 7
14 15 14 12 14 15 10 9 9 9 10 10 10 10 7 6 6 8 10 9 5 6 8 8 10 15 15 13 10 13 15 12 8 7 7 6 6 7 7 7 8 9 9
15 15 15 14 13 13 12 12 10 9 10 10 9 8 6 4 3 6 8 8 6 4 6 12 14 15 14 11 13 14 11 6 6 7 7 7 7 8 7 6 7 7 8
16 15 14 14 14 13 11 10 9 9 9 8 7 6 3 2 2 2 3 4 4 5 8 13 16 13 9 10 10 8 5 4 6 7 8 8 7 6 6 5 5 6 7
17 16 15 14 13 11 10 9 10 9 8 7 5 4 2 1 2 2 3 4 4 7 11 10 9 8 7 7 6 5 4 4 6 8 9 8 7 6 6 6 6 6 7
15 14 12 11 10 10 10 10 11 11 10 9 6 4 3 6 7 4 3 4 6 12 12 10 10 9 9 9 8 7 5 6 7 8 8 7 6 6 5 5 4 6 7
15 14 11 10 10 9 9 9 8 7 8 9 9 8 7 9 8 6 5 6 8 11 8 9 9 8 8 8 7 7 7 6 7 7 7 6 6 6 6 5 4 5 6
15 15 12 10 9 9 9 8 7 6 5 5 7 9 11 11 9 7 8 8 6 7 7 9 9 8 8 8 8 7 7 7 6 7 6 6 6 6 6 5 5 6 6
13 10 9 8 8 8 8 8 7 7 6 5 4 6 8 9 8 8 11 7 9 10 8 8 8 8 8 8 7 8 8 7 7 6 6 6 6 6 5 5 5 6 5
9 11 9 7 6 7 7 7 6 6 5 5 6 6 8 8 6 7 8 8 9 9 7 6 7 7 7 7 8 8 9 7 7 6 6 6 6 5 6 7 7 5 3
7 6 7 7 6 5 5 6 5 5 5 5 6 9 12 10 10 11 10 9 9 9 7 6 6 8 7 7 8 9 10 8 6 6 7 6 6 5 5 6 6 5 5
5 4 3 4 4 4 4 4 4 5 5 6 7 9 13 10 10 11 11 10 9 6 6 6 7 7 7 8 8 8 9 9 7 7 7 6 5 6 6 6 6 5 5
5 3 2 2 2 3 4 4 4 4 5 7 8 9 10 9 11 11 11 9 7 6 6 5 6 7 7 7 8 8 9 9 8 8 8 7 6 5 5 5 6 6 5
5 3 2 0 1 2 3 3 4 4 6 7 8 10 10 10 11 12 10 8 7 6 5 5 6 9 10 8 6 7 7 8 8 7 9 8 7 6 5 5 5 6 5
4 3 2 1 1 2 3 3 3 4 5 6 8 9 10 11 11 11 9 8 7 7 7 6 5 8 11 10 8 7 11 13 11 9 7 6 6 6 6 6 5 5 5
5 3 2 1 1 2 2 3 4 4 6 8 9 9 10 11 11 10 9 8 8 7 7 6 7 9 11 9 9 12 14 14 12 9 6 6 5 5 6 5 6 6 6
Wind_Direction
324 321 319 316 318 316 312 314 318 317 316 311 306 298 290 284 275 267 266 272 277 281 282 282 277 269 261 257 248 238 229 213 188 136 108 109 106 110 107 105 101 92 85
297 296 296 297 297 295 295 298 300 302 303 303 302 297 287 282 278 273 270 274 280 284 287 288 285 280 266 259 242 231 216 192 163 145 132 121 109 116 114 111 106 99 93
277 273 274 275 276 277 280 283 285 286 289 294 297 298 293 285 280 275 269 268 272 279 285 285 284 277 266 248 225 207 184 163 146 139 137 124 112 117 111 109 109 107 102
270 267 266 265 265 267 270 271 273 275 277 278 283 289 294 290 280 273 269 265 266 274 280 285 288 275 260 234 212 182 158 143 135 133 133 131 122 122 121 123 121 122 119
278 274 270 268 267 266 268 268 268 268 273 274 279 283 288 289 280 275 271 264 260 263 270 286 295 330 310 207 182 153 145 138 137 135 135 133 134 139 139 141 131 128 122
276 276 275 272 271 271 273 271 269 269 270 272 276 284 289 294 302 288 271 267 258 248 241 232 196 134 112 105 113 125 135 142 145 141 139 141 143 141 137 139 140 142 141
280 279 278 277 276 273 279 280 279 284 285 284 285 286 287 291 284 258 243 248 243 229 212 197 185 146 138 122 110 104 104 115 132 141 141 143 142 146 146 143 143 136 125
282 282 281 280 281 277 276 278 282 285 285 285 282 281 283 284 278 246 231 233 233 212 194 175 154 146 144 136 127 111 96 91 106 116 120 121 121 128 133 137 132 118 115
289 284 283 280 281 281 280 277 280 281 281 280 279 274 276 280 271 244 228 227 214 191 169 155 149 143 141 137 125 117 107 94 87 96 101 106 107 106 112 129 142 135 131
286 283 280 277 276 277 277 278 277 275 275 275 274 271 271 275 270 240 229 227 202 170 154 147 144 140 141 137 131 128 123 122 119 112 108 113 113 106 98 109 155 147 137
290 288 285 279 278 277 272 269 269 270 271 270 273 271 265 265 257 232 224 230 199 168 158 152 143 139 138 133 127 126 131 130 127 124 123 122 116 98 76 55 49 106 118
296 291 286 283 282 282 277 275 270 265 266 267 266 266 260 251 237 222 215 222 225 171 158 151 146 141 136 133 128 133 136 134 131 130 128 126 114 94 83 74 67 73 85
294 289 285 284 280 278 275 273 270 263 260 263 263 263 256 236 213 208 198 204 219 194 157 143 141 139 132 129 137 146 151 149 143 139 133 120 109 109 105 95 85 80 74
291 288 285 282 278 273 268 264 261 260 257 259 262 263 250 206 172 164 174 166 167 155 139 135 134 136 129 127 141 157 180 169 144 129 119 116 119 129 134 134 123 109 95
289 285 281 277 273 271 267 258 254 252 250 250 261 243 206 160 136 137 161 159 161 151 142 139 142 145 143 146 157 171 181 153 131 124 126 135 147 157 156 153 147 139 126
284 282 278 273 268 264 262 263 244 239 242 231 221 200 137 129 137 131 119 115 133 153 150 149 153 157 159 160 166 170 166 149 138 135 140 149 155 152 143 147 158 147 143
280 276 272 267 262 259 255 251 249 235 230 220 201 181 159 146 144 142 133 134 149 165 163 158 162 164 165 164 165 163 159 149 142 143 147 148 145 141 144 155 154 134 128
281 274 267 260 255 251 247 243 239 232 220 214 201 188 168 158 156 154 143 140 157 189 186 170 171 168 167 166 166 160 149 144 143 144 144 144 144 145 150 153 144 134 128
283 273 261 256 249 242 239 235 230 228 218 211 178 172 166 152 147 152 156 172 177 192 197 177 171 166 165 162 157 147 143 146 149 144 143 146 148 148 154 149 123 123 141
284 273 259 252 247 237 230 228 221 211 204 199 185 168 153 152 156 161 181 191 186 196 196 175 165 160 157 155 146 144 147 149 151 148 143 148 152 154 150 138 136 153 172
294 281 253 243 238 232 227 220 206 196 193 193 182 164 161 166 167 171 183 191 193 196 184 172 160 157 152 147 148 151 150 151 158 154 148 157 157 151 148 144 152 172 161
303 283 253 237 227 218 212 204 189 186 189 180 156 156 164 168 168 173 184 188 194 193 175 166 162 158 155 157 156 154 154 158 166 156 151 162 155 158 160 158 168 173 161
320 311 269 224 204 185 190 179 177 181 173 162 153 157 168 173 172 176 183 184 189 183 173 166 164 161 157 156 155 159 161 162 162 155 155 161 164 166 165 164 168 168 175
334 334 338 322 176 170 161 155 160 161 155 153 157 160 166 170 172 175 182 182 184 177 172 171 171 163 157 154 158 164 158 154 156 157 160 166 170 171 170 165 175 189 190
345 2 14 27 70 101 122 138 151 154 155 156 157 160 165 168 169 173 178 175 179 182 183 182 169 161 162 163 164 153 143 144 153 159 158 170 176 177 179 179 186 200 203
356 11 14 43 106 140 161 167 170 170 164 163 165 165 165 164 165 169 171 174 182 181 182 185 170 159 161 165 149 132 133 134 133 140 163 180 187 189 191 200 203 209 217
Height
1481 1479 1477 1475 1473 1472 1470 1468 1467 1465 1464 1463 1462 1461 1460 1460 1460 1459 1457 1456 1454 1452 1451 1449 1447 1446 1444 1444 1443 1444 1444 1446 1448 1450 1452 1454 1456 1457 1459 1460 1462 1463 1463
1477 1475 1473 1470 1468 1466 1464 1462 1460 1457 1456 1455 1454 1453 1453 1452 1452 1452 1451 1450 1448 1447 1445 1443 1441 1440 1439 1439 1438 1438 1439 1441 1443 1445 1449 1452 1454 1456 1458 1460 1461 1463 1464
1473 1470 1468 1465 1463 1460 1458 1456 1454 1451 1449 1448 1447 1445 1445 1444 1444 1444 1444 1443 1442 1441 1439 1438 1436 1435 1434 1434 1434 1434 1435 1437 1439 1442 1446 1450 1453 1456 1458 1460 1462 1464 1465
1468 1465 1462 1460 1457 1455 1452 1450 1448 1445 1443 1441 1440 1438 1437 1436 1436 1436 1436 1436 1435 1435 1434 1432 1431 1431 1430 1430 1430 1430 1431 1433 1436 1440 1444 1448 1452 1455 1458 1460 1463 1465 1467
1462 1460 1457 1455 1452 1449 1447 1444 1442 1440 1438 1436 1434 1432 1431 1430 1429 1429 1429 1429 1429 1429 1428 1427 1426 1426 1426 1427 1427 1428 1429 1431 1435 1438 1442 1447 1451 1454 1457 1461 1463 1467 1470
1456 1453 1451 1448 1446 1443 1441 1439 1436 1434 1432 1430 1428 1426 1425 1424 1422 1422 1422 1422 1422 1423 1423 1422 1422 1422 1423 1424 1425 1427 1428 1430 1433 1437 1441 1445 1450 1454 1458 1461 1464 1467 1470
1449 1446 1444 1441 1439 1436 1434 1432 1430 1428 1426 1424 1422 1421 1419 1417 1416 1415 1416 1416 1417 1418 1418 1418 1418 1419 1420 1421 1423 1426 1428 1431 1434 1437 1441 1445 1450 1454 1457 1461 1465 1467 1470
1441 1439 1436 1434 1431 1429 1427 1425 1423 1421 1420 1418 1416 1414 1412 1411 1410 1409 1409 1410 1411 1412 1413 1414 1415 1416 1418 1420 1422 1425 1428 1431 1435 1438 1442 1446 1450 1455 1458 1462 1465 1468 1471
1433 1431 1428 1426 1423 1421 1419 1417 1416 1414 1412 1411 1409 1408 1406 1404 1404 1403 1403 1404 1405 1407 1408 1410 1411 1414 1416 1419 1421 1424 1428 1432 1436 1440 1444 1447 1452 1456 1459 1462 1466 1468 1472
1425 1422 1420 1417 1415 1413 1411 1409 1408 1407 1405 1404 1402 1401 1400 1399 1398 1397 1398 1399 1400 1402 1405 1407 1409 1412 1415 1418 1421 1424 1428 1432 1436 1441 1445 1450 1454 1457 1460 1463 1466 1468 1471
1416 1413 1410 1408 1406 1404 1402 1401 1400 1399 1398 1397 1396 1395 1394 1393 1392 1392 1392 1394 1396 1398 1401 1404 1407 1410 1414 1418 1422 1425 1429 1433 1438 1442 1446 1450 1454 1458 1460 1462 1465 1467 1470
1406 1403 1401 1399 1397 1396 1394 1393 1392 1392 1391 1390 1389 1388 1388 1387 1386 1386 1387 1389 1392 1395 1398 1401 1405 1410 1414 1418 1423 1427 1431 1435 1439 1443 1447 1451 1454 1457 1460 1463 1465 1467 1470
1395 1393 1390 1388 1387 1386 1385 1384 1384 1384 1384 1383 1383 1383 1382 1382 1381 1381 1382 1384 1388 1391 1395 1399 1404 1409 1414 1419 1424 1429 1433 1437 1441 1444 1448 1452 1454 1457 1460 1463 1466 1468 1470
1384 1382 1380 1378 1376 1376 1376 1376 1376 1377 1377 1378 1378 1378 1378 1378 1377 1377 1379 1381 1384 1389 1394 1398 1404 1410 1415 1420 1425 1430 1434 1438 1442 1445 1448 1451 1455 1458 1461 1463 1466 1468 1470
1373 1371 1369 1368 1367 1366 1366 1367 1368 1369 1371 1372 1373 1374 1375 1375 1375 1375 1376 1379 1383 1387 1392 1398 1404 1410 1415 1421 1426 1430 1435 1439 1442 1445 1448 1452 1456 1459 1462 1464 1467 1469 1471
1362 1360 1359 1358 1357 1357 1358 1359 1360 1362 1364 1366 1369 1371 1371 1373 1373 1374 1375 1378 1382 1387 1393 1398 1404 1410 1415 1420 1425 1430 1435 1439 1442 1445 1449 1453 1457 1460 1463 1465 1468 1470 1472
1352 1350 1349 1349 1349 1350 1351 1352 1354 1356 1358 1361 1363 1366 1368 1370 1372 1373 1375 1378 1383 1389 1395 1399 1405 1411 1416 1420 1425 1430 1434 1439 1442 1446 1450 1453 1457 1460 1463 1466 1468 1471 1473
1343 1341 1341 1341 1342 1343 1344 1346 1349 1351 1353 1355 1358 1361 1364 1367 1370 1372 1376 1379 1384 1390 1395 1401 1406 1411 1416 1421 1425 1430 1434 1438 1442 1446 1450 1453 1457 1460 1463 1466 1468 1471 1473
1336 1334 1334 1334 1336 1337 1339 1341 1344 1346 1349 1351 1354 1357 1360 1364 1367 1371 1375 1380 1385 1390 1396 1401 1406 1411 1416 1421 1425 1429 1433 1438 1442 1446 1450 1453 1457 1460 1463 1466 1468 1470 1473
1330 1329 1329 1330 1331 1333 1335 1337 1340 1342 1345 1348 1351 1354 1357 1361 1365 1369 1375 1381 1386 1391 1396 1401 1406 1411 1416 1420 1425 1429 1433 1437 1442 1446 1449 1453 1456 1460 1462 1465 1467 1470 1472
1326 1325 1325 1327 1328 1330 1332 1335 1337 1340 1342 1345 1348 1351 1355 1359 1364 1369 1375 1381 1387 1392 1397 1401 1406 1411 1416 1420 1425 1429 1433 1437 1441 1445 1449 1452 1456 1459 1462 1464 1466 1469 1472
1326 1325 1325 1326 1327 1329 1331 1333 1335 1338 1340 1343 1346 1350 1355 1360 1365 1370 1376 1382 1388 1393 1398 1403 1407 1412 1416 1420 1425 1429 1432 1436 1441 1444 1448 1452 1455 1458 1461 1464 1466 1468 1471
1327 1326 1326 1326 1327 1328 1330 1332 1334 1336 1338 1342 1345 1349 1354 1360 1366 1372 1377 1383 1389 1394 1399 1403 1408 1412 1417 1421 1425 1429 1432 1436 1440 1443 1447 1451 1454 1457 1460 1463 1465 1467 1469
1328 1327 1327 1327 1328 1329 1330 1332 1333 1335 1338 1341 1345 1350 1355 1360 1367 1373 1379 1384 1390 1395 1400 1404 1409 1413 1417 1421 1425 1429 1432 1436 1439 1443 1446 1450 1453 1456 1459 1461 1463 1466 1467
1330 1329 1328 1328 1329 1329 1330 1332 1334 1336 1339 1342 1346 1351 1357 1362 1368 1374 1380 1386 1391 1396 1401 1405 1409 1413 1417 1421 1425 1428 1432 1435 1439 1442 1446 1449 1452 1455 1457 1459 1461 1463 1465
1331 1330 1329 1328 1328 1329 1330 1332 1334 1336 1340 1344 1349 1354 1359 1365 1371 1377 1382 1387 1393 1397 1402 1406 1410 1414 1417 1421 1425 1428 1431 1434 1438 1442 1445 1448 1451 1453 1455 1457 1459 1460 1461